Weather History for Spokane Fairchild, WA

Change the Weather History Date:

Thursday, August 1, 2013

  Actual Average Record
Temperature  
Mean Temperature 63 °F -  
Max Temperature 70 °F 83 °F 95 °F (2003)
Min Temperature 58 °F 56 °F 48 °F (2006)
Degree Days  
Heating Degree Days 2    
Growing Degree Days 13 (Base 50)    
Moisture  
Dew Point 51 °F    
Average Humidity 63    
Maximum Humidity 91    
Minimum Humidity 45    
Precipitation  
Precipitation 0.15 in - - ()
Sea Level Pressure  
Sea Level Pressure 29.93 in    
Wind  
Wind Speed 6 mph (South)    
Max Wind Speed 10 mph    
Max Gust Speed -    
Visibility 10 miles    
Events Rain    
Averages and records for this station are not official NWS values.
T = Trace of Precipitation, MM = Missing Value Source: NWS Daily Summary

Daily Weather History Graph

Daily Weather History Graph

Search for Another Location

Airport:

Trip Planner

Search our weather history database for the weather conditions in past years. The results will help you decide how hot, cold, wet, or windy it might be!

Date:

Astronomy

Aug. 01, 2013 Rise Set
Actual Time 5:28 AM PDT 8:24 PM PDT
Civil Twilight 4:52 AM PDT 9:00 PM PDT
Nautical Twilight 4:06 AM PDT 9:46 PM PDT
Astronomical Twilight 3:10 AM PDT 10:41 PM PDT
Moon 1:06 AM PDT (8/1) 4:40 PM PDT (8/1)
Length of Visible Light 16h 07m
Length of Day
14h 56m
Waning Crescent, 22% of the Moon is Illuminated
Aug 1
Waning Crescent
Aug 6
New
Aug 14
First Quarter
Aug 20
Full
Aug 28
Last Quarter

Hourly Weather History & Observations

Time (PDT) Temp. Dew Point Humidity Pressure Visibility Wind Dir Wind Speed Gust Speed Precip Events Conditions
12:58 AM 65.7 °F 44.8 °F 47% 29.94 in 10.0 mi North 4.6 mph - N/A   Overcast
1:58 AM 63.7 °F 43.5 °F 48% 29.92 in 10.0 mi NW 8.1 mph - N/A   Clear
2:58 AM 63.7 °F 42.3 °F 46% 29.91 in 10.0 mi NNW 5.8 mph - N/A   Clear
3:58 AM 61.7 °F 42.8 °F 50% 29.90 in 10.0 mi NNW 4.6 mph - N/A   Clear
4:58 AM 61.7 °F 43.3 °F 51% 29.89 in 10.0 mi NNW 6.9 mph - N/A   Clear
5:58 AM 60.1 °F 42.8 °F 53% 29.90 in 10.0 mi Calm Calm - N/A   Clear
6:58 AM 62.8 °F 45.7 °F 54% 29.90 in 10.0 mi NW 3.5 mph - N/A   Clear
7:58 AM 65.7 °F 47.1 °F 51% 29.90 in 10.0 mi NNE 3.5 mph - N/A   Partly Cloudy
8:58 AM 68.5 °F 46.4 °F 45% 29.92 in 10.0 mi East 4.6 mph - N/A   Mostly Cloudy
9:17 AM 66.2 °F 50.0 °F 56% 29.96 in 10.0 mi SE 8.1 mph - N/A Rain Light Rain
9:39 AM 64.4 °F 50.0 °F 59% 29.96 in 10.0 mi SE 6.9 mph - N/A   Scattered Clouds
9:58 AM 64.6 °F 48.9 °F 57% 29.94 in 10.0 mi SSE 10.4 mph - 0.00 in   Scattered Clouds
10:58 AM 63.3 °F 47.1 °F 56% 29.94 in 10.0 mi SE 5.8 mph - N/A   Clear
11:58 AM 64.2 °F 48.0 °F 56% 29.93 in 10.0 mi East 4.6 mph - N/A   Mostly Cloudy
12:58 PM 67.1 °F 48.9 °F 52% 29.94 in 10.0 mi ESE 6.9 mph - N/A   Overcast
1:58 PM 68.4 °F 50.4 °F 53% 29.95 in 10.0 mi SSE 8.1 mph - N/A   Overcast
2:39 PM 68.0 °F 50.0 °F 52% 29.97 in 10.0 mi SE 8.1 mph - N/A Rain Light Rain
2:58 PM 66.4 °F 55.8 °F 69% 29.95 in 7.0 mi SSE 4.6 mph - 0.00 in Rain Light Rain
3:20 PM 66.2 °F 53.6 °F 64% 29.95 in 10.0 mi SSW 10.4 mph - N/A   Overcast
3:56 PM 68.0 °F 53.6 °F 60% 29.95 in 10.0 mi SE 4.6 mph - N/A Rain Light Rain
3:58 PM 68.0 °F 53.6 °F 60% 29.93 in 10.0 mi SE 4.6 mph - 0.01 in Rain Light Rain
4:06 PM 66.2 °F 53.6 °F 64% 29.95 in 10.0 mi SSE 6.9 mph - N/A   Mostly Cloudy
4:58 PM 65.8 °F 53.6 °F 65% 29.92 in 10.0 mi SSW 4.6 mph - 0.00 in   Partly Cloudy
5:58 PM 66.2 °F 53.6 °F 64% 29.91 in 10.0 mi SSW 5.8 mph - N/A   Clear
6:58 PM 65.8 °F 54.7 °F 67% 29.91 in 10.0 mi SSW 8.1 mph - N/A   Overcast
7:58 PM 64.0 °F 55.0 °F 73% 29.92 in 10.0 mi West 6.9 mph - N/A   Overcast
8:12 PM 62.6 °F 55.4 °F 77% 29.95 in 10.0 mi West 5.8 mph - N/A Rain Light Rain
8:58 PM 61.0 °F 56.1 °F 84% 29.95 in 10.0 mi SW 4.6 mph - 0.05 in Rain Rain
9:03 PM 60.8 °F 57.2 °F 88% 29.97 in 6.0 mi SW 5.8 mph - N/A Rain Rain
9:57 PM 59.0 °F 55.4 °F 88% 29.95 in 10.0 mi WSW 5.8 mph - N/A   Overcast
9:58 PM 59.0 °F 55.8 °F 89% 29.94 in 10.0 mi WSW 5.8 mph - 0.09 in   Overcast
10:58 PM 58.8 °F 56.1 °F 91% 29.94 in 10.0 mi East 5.8 mph - 0.00 in   Overcast
11:58 PM 59.2 °F 55.8 °F 88% 29.93 in 10.0 mi South 5.8 mph - N/A   Overcast